Regional Weather Roundup
Issued by NWS

Home | Current Version | Previous Version | Graphics & Text | Print | Product List | Glossary On
Versions: 1 2 3 4 5 6 7 8 9 10 11 12 13 14 15 16 17 18 19 20 21 22 23 24 25 26 27 28 29 30 31 32 33 34 35 36 37 38 39 40 41 42 43 44 45 46 47 48 49 50
143
ASUS43 KIND 231009
RWRIN

WEATHER ROUNDUP FOR INDIANA
NATIONAL WEATHER SERVICE INDIANAPOLIS IN
600 AM EDT WED AUG 23 2017

NOTE: "FAIR" INDICATES FEW OR NO CLOUDS BELOW 12,000 FEET WITH NO
SIGNIFICANT WEATHER AND/OR OBSTRUCTIONS TO VISIBILITY.

* - STATION DOES NOT REPORT WEATHER SUCH AS PRECIPITATION OR FOG.

+ - STATION NOT QUALITY CONTROLLED BY THE NATIONAL WEATHER SERVICE.
    USE DATA WITH CAUTION...ESPECIALLY DEWPOINT AND RELATIVE
    HUMIDITY OBSERVATIONS.

INZ001>003-010>013-019-020-231100-
NORTHWEST INDIANA

CITY           SKY/WX    TMP DP  RH WIND       PRES   REMARKS
KNOX *+        CLEAR     54  52  94 SW3       30.00S
LA PORTE +     CLEAR     57  53  86 W3        30.01S
MICHIGAN CITY+ CLEAR     64  52  63 NW3       30.00S
MONTICELLO +   PTCLDY    55  54  95 W3        30.01S
RENSSELAER +   CLEAR     55  50  82 W3        30.02F
VALPARAISO     CLEAR     59  53  80 W5        30.01S

$$

LMZ046-743>745-231100-
SOUTHERN LAKE MICHIGAN

STATION/POSITION TIME  TEMP    WIND        PRES    WAVE
                       AIR SEA DIR/SP/G            HT
                 (UTC) (F)     (DEG/KT/KT) (MB)    (FT)
BURNS HARBOR     0940   69     320/ 13/ 16 1016.3S
MICHIGAN CITY    0940   69     310/ 17/ 19   N/A
5NW MICH CITY    1000   70 73  320/ 14/ 19   N/A     5

$$

INZ004-005-014>016-021>024-231100-
NORTH CENTRAL INDIANA

CITY           SKY/WX    TMP DP  RH WIND       PRES   REMARKS
GOSHEN         CLEAR     55  52  89 CALM      29.98F
LOGANSPORT +   CLEAR     55  54  94 W3        30.02S
PERU/GRISSOM   CLEAR     59  59 100 W5        30.00S
ROCHESTER +    CLEAR     59  55  88 CALM      30.00F
SOUTH BEND     CLEAR     57  55  93 W6        30.00S
WARSAW +       CLEAR     55  55 100 W3        29.99S

$$

INZ006>009-017-018-025>027-231100-
NORTHEAST INDIANA

CITY           SKY/WX    TMP DP  RH WIND       PRES   REMARKS
AUBURN +       CLEAR     55  54  94 CALM      29.99S
FORT WAYNE     CLEAR     57  54  89 W7        29.99S
HUNTINGTON +   CLEAR     57  56  96 W3        29.99F

$$

INZ028-029-035-036-043>045-051>053-231100-
WEST CENTRAL INDIANA

CITY           SKY/WX    TMP DP  RH WIND       PRES   REMARKS
GREENCASTLE +  PTCLDY    59  55  88 CALM      30.03S
LAFAYETTE      PTCLDY    56  56 100 CALM      30.02S
TERRE HAUTE    CLEAR     58  54  86 N3        30.03R

$$

INZ030>032-037>040-046>048-054>057-064-065-231100-
CENTRAL INDIANA

CITY           SKY/WX    TMP DP  RH WIND       PRES   REMARKS
CP ATTERBURY + CLEAR     59  55  88 CALM      30.01S
FRANKFORT +    PTCLDY    57  56  95 CALM      30.04R
GREENWOOD *+   CLEAR    N/A N/A N/A CALM      30.02S
INDIANAPOLIS   PTCLDY    59  57  93 NW7       30.01R
-EAGLE CREEK   MOCLDY    61  57  87 NW9       30.01R
KOKOMO +       PTCLDY    59  57  93 W5        30.02R
MARION +       CLEAR     55  54  94 CALM      30.01S
MT COMFORT *+  CLEAR     55  55 100 CALM      30.01S
SHELBYVILLE    CLEAR     60  56  86 N3        30.00S
ZIONSVILLE +   CLEAR     57  57  98 NW6       30.03R

$$

INZ033-034-041-042-049-050-058-059-231100-
EAST CENTRAL INDIANA

CITY           SKY/WX    TMP DP  RH WIND       PRES   REMARKS
MUNCIE         PTCLDY    56  53  90 CALM      30.00S
RICHMOND +     CLEAR     57  55  94 CALM      30.01S

$$

INZ060-061-067>069-081>083-085>088-231100-
SOUTHWEST INDIANA

CITY           SKY/WX    TMP DP  RH WIND       PRES   REMARKS
EVANSVILLE     CLEAR     63  59  87 NW3       30.03R
HUNTINGBURG +  CLEAR     60  59  96 CALM      30.02S
WASHINGTON +   CLEAR     60  57  92 MISG      30.02S

$$

INZ062-063-066-070>080-084-089>092-231100-
SOUTH CENTRAL AND SOUTHEAST INDIANA

CITY           SKY/WX    TMP DP  RH WIND       PRES   REMARKS
BEDFORD +      CLEAR     61  57  88 CALM      30.00S
BLOOMINGTON    CLEAR     59  55  87 CALM      30.01S
MADISON *+     CLEAR     61  59  94 CALM      30.02S
NORTH VERNON + FOG       57  57 100 CALM      30.01S VSB 1/2
SEYMOUR +      CLEAR     63  59  88 CALM      30.00S

$$





USA.gov is the U.S. government's official web portal to all federal, state and local government web resources and services.